WHITEHORSE, YK current weather conditions

sailwx.info

Wind from 160 at 11 knots gusting 18

Air temperature 2.0° C
Visibility: greater than 34.8 NM
Dewpoint -6.0° C

Last reported at 2015-Mar-29 03:39 UTC.
Time now 2015-Mar-29 04:29 UTC

Location: N 60°43' W 135°04'.
View on Google Maps.

See reports from other nearby stations

  
Tides and Currents Weather Stations Pressure Air Temp Water Temp Dewpoint Dewpoint Depression Visibility Wind Speed Wind Dir Waves Ship Positions
date/time (UTC)wind fromknots sea level pressurealtimeterstation pressurevisibilityair tempwater tempwave heightnotes
2015-Mar-29 03:39 160 11 gusting 18 34.8 2.0
2015-Mar-29 03:00 170 13 34.8 3.0
2015-Mar-29 02:00 130 12 gusting 17 34.8 4.0
2015-Mar-29 01:00 140 10 34.8 4.0
2015-Mar-29 00:00 150 11 gusting 17 34.8 4.0
2015-Mar-28 23:00 130 11 34.8 4.0
2015-Mar-28 22:00 110 7 34.8 4.0
2015-Mar-28 21:00 140 8 34.8 3.0
2015-Mar-28 20:00 140 9 34.8 2.0
2015-Mar-28 19:00 160 9 34.8-0.0
2015-Mar-28 18:00 180 12 34.8-2.0
2015-Mar-28 17:00 160 10 34.8-4.0
2015-Mar-28 16:00 170 3 34.8-5.0
2015-Mar-28 15:00 160 3 34.8-5.0
2015-Mar-28 14:00 280 3 13.0-6.0
2015-Mar-28 13:00 260 3 13.0-5.0
2015-Mar-28 12:00 240 3 13.0-6.0
2015-Mar-28 11:00 190 3 13.0-5.0
2015-Mar-28 10:00 150 9 13.0-2.0
2015-Mar-28 09:00 150 9 13.0-2.0
2015-Mar-28 08:00 150 10 13.0-1.0
2015-Mar-28 07:00 140 8 13.0-1.0
2015-Mar-28 06:00 13.0-0.0
2015-Mar-28 05:00 13.0-0.0
2015-Mar-28 04:00 34.8 2.0
2015-Mar-28 03:00 220 6 34.8 3.0
2015-Mar-28 02:00 210 10 34.8 4.0
2015-Mar-28 01:00 220 10 gusting 18 34.8 5.0
2015-Mar-28 00:00 220 14 gusting 22 34.8 5.0
2015-Mar-27 23:00 240 16 gusting 22 34.8 5.0
2015-Mar-27 22:00 220 13 gusting 20 34.8 5.0
2015-Mar-27 21:00 220 14 gusting 22 34.8 4.0
2015-Mar-27 20:00 210 13 gusting 18 34.8 4.0
2015-Mar-27 19:00 170 9 gusting 16 34.8 3.0
2015-Mar-27 18:00 160 14 34.8 2.0
2015-Mar-27 17:00 150 12 gusting 18 34.8 1.0
2015-Mar-27 16:00 170 10 gusting 19 34.8-0.0
2015-Mar-27 15:00 160 15 34.8-1.0
2015-Mar-27 14:00 170 16 34.8-2.0
2015-Mar-27 13:00 170 16 13.0-1.0
2015-Mar-27 12:00 160 12 13.0-1.0
2015-Mar-27 11:00 160 8 13.0-1.0
2015-Mar-27 10:00 160 9 13.0 1.0
2015-Mar-27 09:00 170 14 gusting 19 13.0 1.0
2015-Mar-27 08:00 170 4 13.0 1.0
2015-Mar-27 07:00 160 10 13.0 1.0
2015-Mar-27 06:00 160 12 gusting 20 13.0 2.0
2015-Mar-27 05:00 160 8 13.0 2.0
2015-Mar-27 04:00 160 12 34.8 3.0